Reflectivity
-20 -20 -20 -20 -20 -20 -20 -20 -6 -19 -9 -17 -20 -20 -20 -20 -20 -20 -20 -4 -20 -20 -20 -20 -20 -20 -20 -20 -20 -20 -20 -19 -20 -20 -20 -20 -9 -17 28 -20 -20 -20 -20
-20 -20 -20 -20 -20 -20 -20 -20 -20 -20 -20 -20 -20 -20 -20 -20 -20 -20 -20 -20 -20 -20 -20 -20 -20 -20 -20 -20 21 -9 -20 -20 -20 -20 -20 0 26 -14 29 4 -20 -20 -20
-20 -20 -20 -20 -20 -20 -20 -20 -20 -20 -20 -20 -20 -20 -12 -20 -20 -20 -20 -20 -20 -20 -20 -20 -20 -20 -20 -20 -20 -20 -20 -20 -20 -20 -20 -4 -5 25 30 22 32 29 24
-20 -20 -20 -20 -20 -20 -20 -20 -20 -20 -20 -20 -20 -20 -20 -20 -20 -20 -20 -20 -20 -20 -20 -20 -20 -20 -20 -20 -20 -15 -20 -17 -5 -20 -20 -20 -20 -20 26 27 27 40 22
-20 -10 -20 -20 -20 -20 -20 -20 -20 -20 -20 -20 -20 -20 -20 -20 -20 -20 -20 -20 -20 -20 -20 -20 -20 -20 -20 -20 -20 -20 -20 -20 -20 -20 -20 -20 -20 -20 -17 29 -20 18 29
26 32 -3 -20 -20 -20 -20 -20 -20 -20 -20 -20 -20 -20 -20 -19 -20 -20 -20 -20 24 -20 -20 -20 -20 -20 -20 -20 -20 -20 -20 -20 -20 -14 -20 -20 -19 -20 -19 -20 27 -20 -19
33 27 8 -6 0 -20 -7 -20 -20 -13 23 -5 -16 30 2 29 -6 -12 26 -20 -2 -8 11 -20 -20 -20 -20 -20 -20 -12 0 -20 -20 -20 -20 -20 -20 -20 -20 -20 -20 -20 -5
32 48 34 31 30 -20 9 -16 22 -20 -19 -20 -20 -19 -2 10 13 14 8 -17 -20 -20 -20 -20 -20 -20 -20 -20 -20 -20 23 24 7 -20 -20 -4 -18 -20 -13 -20 -20 -20 -20
32 -6 29 -19 -11 19 18 14 -20 -20 -20 -20 -10 -20 29 -11 18 24 -12 -20 -20 -20 3 9 -20 -20 6 -0 -20 -20 -20 -20 -20 14 -20 -19 -2 5 10 -16 -17 -20 -9
24 -18 -18 -9 -11 27 14 34 -20 2 11 -20 -20 -20 7 -20 -20 -19 -20 -20 -20 -20 -20 -20 -18 9 -20 -20 -20 -1 -20 15 -19 -20 -20 -5 24 23 23 7 -8 -18 -5
29 29 30 11 19 27 31 17 6 -20 -20 -16 -17 -19 -20 -12 -20 -15 -19 -20 -20 -20 -8 7 1 16 -2 -10 -14 -7 14 28 30 23 25 25 16 18 15 14 21 21 17
5 26 22 19 -3 22 5 -20 -20 -20 -10 9 -13 -20 -20 -20 -20 -20 -18 -20 -20 -20 -20 -20 -20 -16 -5 9 8 16 18 21 26 23 -1 8 14 23 18 19 -3 -17 -2
-20 15 -18 -20 -20 -20 -20 -20 -20 -20 -20 -20 -20 -20 -20 -20 -20 -13 -20 -20 -20 -20 -20 2 -10 -20 -20 -20 -15 12 16 17 8 2 -3 -10 13 16 9 -12 -3 -10 10
-7 -19 -20 -20 -17 -20 -20 -20 -20 -20 -20 -20 -20 -20 -20 -20 -20 -20 -20 -20 -11 3 2 -13 -8 -19 -17 -17 -20 -20 -20 -20 -1 -13 -3 17 6 6 12 16 6 21 -7
-15 -20 -20 -17 -20 -20 -20 -20 -20 -20 -11 -20 -20 -20 -20 -20 -18 -0 -8 -20 -20 -20 -20 -20 -20 -20 -20 -20 -20 -20 -20 -20 -20 -20 -15 -20 -7 1 -2 -9 -8 3 -20
-1 -8 -12 -13 -20 -20 -20 -20 -20 -20 -1 6 -9 -20 -20 -20 -20 -20 -20 -16 -20 -18 -20 -20 -20 -20 -20 -20 -20 -20 -20 -20 -20 -20 -18 -20 -20 -20 -9 7 4 -4 -7
-20 -20 -0 2 -7 -20 -20 -20 -20 -20 -20 -20 -20 -20 -20 -20 -20 -20 -20 -20 -20 -20 -20 -20 -20 -20 -20 -20 -20 -20 -20 -20 -20 -20 -20 -20 -20 -20 -20 -20 -12 -9 -20
-20 -20 -20 -20 -20 -15 -1 -2 -11 -20 -20 -20 -20 -20 -20 -20 -20 -20 -20 -20 -20 -20 -20 -20 -20 -20 -20 -20 -20 -20 -20 -20 -20 -20 -20 -20 -20 -20 -20 -20 -20 -20 -20
-20 -20 -20 -20 -20 -20 -20 -20 -20 -18 -20 -20 -20 -20 -20 -20 -20 -20 -20 -20 -20 -20 -20 -20 -20 -20 -20 -20 -20 -20 -20 -20 -20 -20 -20 -20 -20 -20 -20 -20 -20 -20 -20
-20 -20 -20 -20 -20 -20 -20 -20 -20 -20 -20 -20 -20 -20 -20 -20 -20 -20 -20 -20 -20 -20 -20 -20 -20 -20 -20 -20 -20 -20 -20 -20 -20 -20 -20 -20 -20 -20 -20 -20 -20 -20 -20
-20 -20 -20 -20 -20 -20 -20 -20 -20 -20 -20 -20 -20 -20 -20 -20 -20 -20 -20 -20 -20 -20 -20 -20 -20 -20 -20 -20 -20 -20 -20 -20 -20 -20 -20 -20 -20 -20 -20 -20 -20 -20 -20
-20 -20 -20 -20 -20 -20 -20 -20 -20 -20 -20 -20 -20 -20 -20 -20 -20 -20 -20 -20 -20 -20 -20 -20 -20 -20 -20 -20 -20 -20 -20 -20 -20 -20 -20 -20 -20 -20 -20 -20 -20 -20 -20
-20 -20 -20 -20 -20 -20 -20 -20 -20 -20 -20 -20 -20 -20 -20 -20 -20 -20 -20 -20 -20 -20 -20 -20 -20 -20 -20 -20 -20 -20 -20 -20 -20 -20 -20 -20 -20 -20 -20 -20 -20 -20 -20
-20 -20 -20 -20 -20 -20 -20 -20 -20 -20 -20 -20 -20 -20 -20 -20 -20 -20 -20 -20 -20 -20 -20 -20 -20 -20 -20 -20 -20 -20 -20 -20 -20 -20 -20 -20 -20 -20 -20 -20 -20 -20 -20
-20 -20 -20 -20 -20 -20 -20 -20 -20 -20 -20 -20 -20 -20 -20 -20 -20 -20 -20 -20 -20 -20 -20 -20 -20 -20 -20 -20 -20 -20 -20 -6 8 -20 -20 -20 -20 -20 -20 -20 -20 -20 -20
-20 -20 -20 -20 -20 -20 -20 -20 -20 -20 -20 -20 -20 -20 -20 -19 -1 -20 -20 -20 -20 -20 -20 -20 -20 -20 -20 -20 -20 -20 -20 -16 -3 -19 23 1 -20 -20 -20 -20 -20 -20 -20
Wind_Speed
13 11 11 9 7 6 6 6 7 6 6 4 5 6 5 3 4 4 3 4 4 4 3 3 5 5 4 0 1 2 3 2 2 3 3 4 2 4 6 3 5 4 5
13 12 11 12 11 9 8 8 7 7 7 7 7 7 5 3 3 4 6 5 4 4 4 3 5 3 2 2 2 1 2 2 1 2 2 0 2 6 7 6 6 6 3
10 11 10 10 10 8 9 8 8 8 6 6 5 6 6 6 6 5 6 6 6 4 4 4 4 4 3 2 2 2 1 2 2 1 3 1 2 1 4 5 6 3 4
8 10 11 9 11 8 8 10 7 7 7 7 7 7 8 7 7 6 6 6 6 5 3 3 3 3 4 4 4 4 2 1 1 0 2 2 2 2 3 6 4 1 3
6 10 12 11 9 7 7 7 7 7 7 8 7 6 6 6 4 5 6 5 4 5 3 3 3 1 4 4 2 4 3 2 2 2 2 1 1 1 2 2 4 7 7
15 15 11 10 10 9 7 7 7 6 6 5 4 3 4 3 8 2 4 4 2 1 2 4 4 6 6 4 4 2 3 2 2 1 2 2 2 2 2 3 3 3 3
8 4 4 6 7 7 6 6 5 3 2 3 4 5 6 1 1 2 3 2 3 4 2 3 4 7 8 6 5 4 1 6 5 1 1 3 2 3 2 3 4 4 4
8 8 5 1 3 3 3 1 1 2 1 1 2 2 2 5 5 4 3 3 3 5 6 5 5 6 6 5 5 5 5 5 6 5 6 5 4 4 1 1 1 3 2
4 5 4 7 5 4 3 4 3 3 5 6 6 7 6 7 9 7 5 4 5 6 6 7 6 5 9 8 5 4 6 4 5 7 12 14 14 15 12 3 5 4 2
5 7 8 8 6 4 4 6 6 6 7 6 6 6 8 5 9 7 6 3 1 5 5 6 14 8 11 11 8 7 7 3 3 5 6 9 9 10 15 9 5 4 2
4 6 7 7 7 7 6 6 6 8 8 7 7 7 7 7 8 10 7 4 3 4 3 3 3 8 9 11 10 6 4 2 4 6 6 5 6 6 5 5 6 4 3
9 9 9 7 6 6 7 7 8 7 8 5 6 6 6 7 11 10 9 7 5 5 3 3 4 6 7 7 6 5 7 5 3 4 5 4 3 2 2 2 3 4 3
9 7 7 6 5 5 6 6 5 5 5 5 4 5 3 2 4 11 14 13 13 7 5 6 5 6 7 7 8 7 5 3 3 4 3 2 2 2 1 1 1 2 1
7 6 5 6 7 8 6 6 5 4 3 3 5 4 3 4 4 5 4 4 7 5 5 3 4 5 7 6 6 7 5 4 5 4 3 2 1 1 2 2 2 1 1
7 4 4 5 6 7 7 5 5 4 2 3 3 4 4 4 2 2 4 3 3 3 4 3 3 4 4 4 4 4 4 4 4 3 3 3 3 2 2 3 3 4 4
6 3 3 4 5 5 6 6 11 7 5 10 9 7 4 9 7 4 5 6 5 5 3 2 2 3 4 3 3 3 3 4 3 3 3 3 3 3 3 3 3 2 3
6 4 3 3 5 6 5 6 6 4 9 10 9 9 7 7 5 5 4 5 5 6 2 2 2 3 2 2 2 1 1 1 2 2 2 1 2 3 4 3 3 3 3
5 7 5 3 4 4 5 6 6 5 4 3 3 3 5 5 2 2 3 3 2 0 1 2 3 4 4 3 2 2 1 0 0 1 1 1 1 2 3 4 3 1 2
2 3 5 5 5 5 4 4 3 4 5 4 2 2 3 4 2 2 1 1 2 2 3 4 4 4 4 4 3 3 3 3 2 1 2 1 1 2 3 4 3 3 3
5 6 3 3 4 4 5 6 5 5 5 5 4 3 3 2 1 2 3 2 3 4 4 4 4 2 4 5 4 4 2 2 2 1 2 2 2 3 2 3 2 1 1
4 2 1 1 2 2 3 4 2 4 5 5 5 6 10 4 2 4 4 3 4 3 2 1 2 2 3 5 4 4 4 3 4 4 3 2 3 2 2 1 1 2 1
4 5 4 3 3 4 3 2 1 4 8 6 4 3 6 2 1 3 4 3 5 4 5 4 2 3 4 5 5 4 4 1 1 3 2 2 2 3 3 3 3 2 2
3 4 3 4 5 6 2 2 1 2 4 6 6 4 3 3 3 4 5 4 4 3 4 4 2 3 1 4 5 5 5 5 5 6 4 3 1 0 2 2 2 2 3
4 3 5 5 5 5 5 4 3 3 5 7 6 5 4 3 2 4 1 1 1 2 2 2 2 4 3 5 5 5 5 6 6 6 7 3 2 1 1 2 3 3 3
4 4 2 6 6 5 5 4 4 5 5 5 4 3 2 2 3 4 5 5 6 5 6 5 4 6 6 11 3 7 9 13 8 8 5 4 3 3 2 2 3 3 2
5 5 3 4 5 5 5 5 5 6 6 5 5 4 1 4 4 6 5 5 5 5 5 4 6 8 8 5 7 8 8 9 8 7 1 3 0 2 3 4 4 1 4
Wind_Direction
178 171 169 177 185 187 169 191 190 175 192 182 202 221 219 211 235 190 227 261 231 236 282 316 306 291 286 284 4 12 27 11 83 309 170 226 276 149 123 126 106 94 96
179 176 171 175 181 186 179 191 203 199 192 180 206 186 195 213 215 225 216 228 238 252 254 277 293 296 304 284 103 72 59 5 110 262 244 152 220 150 149 166 126 100 86
176 173 180 181 187 186 186 195 192 188 188 209 209 185 203 211 220 232 217 219 227 235 241 226 268 296 268 276 290 306 208 168 180 164 280 81 236 57 142 100 65 39 95
186 166 178 177 191 196 192 197 183 181 190 205 204 195 200 204 212 233 239 221 225 237 212 217 246 265 262 258 259 265 264 251 150 209 297 300 49 356 92 131 118 181 243
340 191 176 192 182 183 180 175 177 175 188 199 211 224 211 193 203 240 256 238 230 254 256 279 267 166 173 218 231 265 251 236 207 218 247 268 176 138 212 197 169 184 201
248 227 179 179 175 178 182 186 186 198 201 193 202 221 254 204 135 150 358 355 330 193 260 303 316 316 325 273 260 255 252 246 261 194 235 233 226 169 181 197 225 173 200
197 101 121 176 182 161 161 153 151 138 34 343 301 283 264 244 160 1 337 335 337 310 359 28 18 45 28 0 334 305 292 83 76 121 300 13 348 33 270 248 239 193 218
150 116 134 97 50 85 118 185 79 91 41 353 302 315 307 66 70 40 3 38 1 33 60 52 60 44 18 355 345 5 77 54 35 63 88 68 45 338 288 230 261 265 278
68 70 82 103 103 101 92 94 86 86 48 51 34 35 53 54 32 30 34 43 58 86 69 48 61 53 3 22 42 25 102 69 68 77 100 94 55 39 24 48 17 38 350
54 61 62 66 77 70 105 95 74 79 80 77 66 50 57 60 27 42 52 49 64 103 77 77 60 55 36 35 61 57 77 40 132 92 85 65 57 48 45 47 17 41 21
95 84 79 81 82 76 71 68 78 85 84 74 73 55 53 36 29 31 25 89 111 105 99 77 52 77 72 63 64 67 93 9 22 82 87 72 53 47 47 45 50 51 59
66 67 64 61 89 101 106 90 84 90 90 89 85 67 50 38 31 22 38 59 79 96 93 83 78 64 67 87 90 97 91 99 98 91 82 78 87 87 77 101 98 92 71
68 50 65 58 59 75 89 113 119 109 111 114 110 98 89 82 53 53 48 46 52 70 65 74 76 73 75 63 48 44 54 76 85 87 87 60 25 348 125 0 25 63 108
73 64 54 56 49 49 51 43 61 52 105 128 114 113 106 74 45 18 32 36 57 76 98 88 88 101 74 58 50 25 9 28 70 74 95 116 125 72 45 354 342 246 182
82 83 79 77 77 73 57 32 57 48 15 64 76 110 122 97 98 39 21 62 67 74 69 39 45 60 65 66 60 60 56 49 58 58 19 16 43 43 22 349 6 360 6
115 114 122 125 116 108 98 78 47 54 56 67 82 104 48 105 128 88 52 47 38 10 61 97 83 78 78 74 60 49 42 36 26 49 58 34 19 16 11 3 25 41 36
124 122 136 135 146 133 128 117 110 31 60 59 73 106 110 148 126 92 50 6 324 355 140 137 134 133 137 121 99 68 9 74 32 21 28 50 17 10 16 357 357 350 350
152 168 138 145 125 126 143 148 147 150 127 106 26 89 112 134 137 39 354 332 305 61 265 201 204 179 176 171 177 164 121 327 311 286 332 314 348 26 3 333 328 317 14
171 142 140 152 161 161 158 144 169 141 133 127 107 13 172 205 202 158 149 245 299 243 252 243 206 194 195 181 163 156 166 204 208 216 327 334 10 82 18 10 10 34 39
113 101 111 161 174 180 173 174 166 174 136 145 153 188 166 150 195 197 217 240 108 62 42 35 25 162 178 154 163 172 182 192 214 231 172 118 94 84 31 347 360 323 347
140 164 195 114 167 126 106 96 131 154 137 157 170 189 181 163 256 192 203 166 124 138 129 52 26 51 134 146 171 166 189 224 222 184 153 137 158 178 239 247 309 285 241
181 181 196 160 136 88 78 121 143 133 148 155 168 164 180 197 222 191 179 187 176 179 174 183 238 244 211 181 166 173 220 248 355 139 160 190 196 218 214 222 244 252 231
176 215 235 162 149 155 147 120 77 214 167 163 163 163 177 226 237 220 169 153 161 183 185 185 199 300 325 177 182 186 180 166 157 143 144 147 152 16 242 218 239 270 258
275 243 194 176 164 175 178 182 237 229 143 120 148 137 143 144 86 91 60 332 53 13 5 278 252 274 229 196 201 196 166 161 159 149 143 160 205 80 42 281 273 287 284
261 286 29 165 171 186 176 187 123 120 117 116 115 117 97 61 65 68 66 69 63 44 35 39 33 18 14 11 288 196 171 162 160 163 152 164 168 219 225 240 250 266 284
248 264 226 179 177 156 155 150 153 139 136 149 144 130 198 92 96 92 77 62 55 41 31 24 21 14 19 13 334 295 207 184 154 147 92 115 56 359 319 281 278 263 298